Sultan Abdul Halim Airport
WMKA : now visible

Airfield :











YOU CAN JOIN US ON...

 
LOGIN :

Register | Disclaimer

   EN    FR    IT 

 









Legend :    VFR   Marginal VFR   IFR   Intensive IFR   Very Intensive IFR
Visi :
Ceiling :
>= 8 km
>= 3000ft
5 to 8 km
1000 to 3000 ft
1500m to 5 km
500 to 1000 ft
800 to 1500m
200 to 500 ft
< 800m
< 200 ft
Symbols :   Thunderstorms  Fog  Heavy snow  Heavy precipitations  Wind > 20 kt






- Airport Elevation : 15 ft
- IATA code : AOR


WMKA - Sultan Abdul Halim

CURRENT METAR :
  • 180200Z 14004KT 090V170 9999 FEW020 28/25 Q1013

EXPIRED METARs :
  • 180100Z 13005KT 080V170 9999 FEW020 25/24 Q1013
  • 180000Z 16003KT 6000 FEW010 24/24 Q1012

TAF TAF WMKA
Valid from the 18 at 00:00 until the 19 at 00:00 UTC


172300Z 1800/1900 VRB03KT 9999 FEW020
BECMG 1804/1806 22007KT
TEMPO 1808/1812 5000 TSRA FEW010 FEW017CB
BECMG 1812/1814 VRB03KT 8000 SCT030
WMFC FIR / Asia



MET'MAP, your aeronautical weather chart ! - Copyright ORBIFLY December 2007 - Disclaimer

ORBIFLY MET'MAP TEAM :

Programming & Development : Alexandra Zaïnal
Concept & original design : Baudouin d'Aumeries
Assistance for programming : Marc-Olivier Méhu
Technical & hardware support : Manuel Goepfert

Contact : metmap@orbifly.com




SOURCES & CREDITS :

   NOAA       Earth
Advisory